period_start,C,m1,H,J0,J1,J2,J3,J4,J5,JA,JB,JC,JD,JJ,JK,JN,#
2015-10-23 00:03:03,-0.01,2.61,0.00,19.22,24.95,28.91,14.93,48.79,1020.52,2041.99,2669.37,2586.99,2801.01,599.75,605.76,51.12,0000 0000 0000 0000 000000
2015-10-23 00:08:05,-0.01,2.61,0.00,19.22,24.93,28.84,14.91,48.75,1020.52,2041.99,2669.82,2586.99,2801.00,599.98,605.84,51.17,0000 0000 0000 0000 000000
2015-10-23 00:13:06,0.01,2.61,0.00,19.22,24.92,28.83,14.86,48.70,1020.52,2041.99,2669.18,2586.99,2801.00,599.79,605.75,51.22,0000 0000 0000 0000 000000
2015-10-23 00:18:07,0.00,2.61,0.00,19.22,24.91,28.89,14.82,48.68,1020.52,2042.00,2669.04,2586.99,2801.01,599.90,605.93,51.27,0000 0000 0000 0000 000000
2015-10-23 00:23:08,0.00,2.61,0.00,19.22,24.90,28.86,14.94,48.58,1020.52,2042.00,2669.00,2586.99,2801.00,599.79,605.79,51.32,0000 0000 0000 0000 000000
2015-10-23 00:28:09,0.00,2.61,0.00,19.23,24.90,28.79,14.87,48.90,1020.52,2042.00,2669.02,2586.97,2800.98,599.68,605.60,51.37,0000 0000 0000 0000 000000
2015-10-23 00:33:10,0.00,2.61,0.00,19.21,24.88,28.80,14.91,48.75,1020.52,2042.00,2669.01,2586.90,2800.97,599.97,605.99,51.42,0000 0000 0000 0000 000000
2015-10-23 00:38:12,0.07,2.62,0.00,19.20,24.87,28.72,14.97,48.71,1020.52,2042.00,2668.22,2586.15,2800.51,599.98,606.15,51.47,0000 0000 0000 0000 000000
2015-10-23 00:43:13,0.09,2.62,0.00,19.21,24.87,28.74,14.96,48.77,1020.48,2042.01,2666.52,2585.48,2799.72,600.26,606.37,51.52,0000 0000 0000 0000 000000
2015-10-23 00:48:14,0.03,2.62,0.00,19.22,24.87,28.69,14.90,48.74,1020.35,2042.00,2665.39,2585.00,2799.04,600.14,606.11,51.57,0000 0000 0000 0000 000000
2015-10-23 00:53:15,-0.00,2.62,0.00,19.23,24.88,28.70,14.91,48.63,1020.24,2042.00,2665.12,2585.00,2799.00,600.01,605.83,51.62,0000 0000 0000 0000 000000
2015-10-23 00:58:16,0.00,2.62,0.00,19.24,24.90,28.81,14.92,48.63,1020.32,2042.01,2665.01,2585.00,2799.00,599.96,605.80,51.67,0000 0000 0000 0000 000000
2015-10-23 01:03:17,0.00,2.62,0.00,19.25,24.90,28.83,14.95,48.83,1020.32,2042.02,2665.00,2584.95,2798.98,600.08,606.05,51.72,0000 0000 0000 0000 000000
2015-10-23 01:08:19,0.02,2.62,0.00,19.27,24.90,28.80,14.86,48.57,1020.40,2042.00,2664.95,2584.69,2798.69,599.94,605.88,51.77,0000 0000 0000 0000 000000
2015-10-23 01:13:20,0.04,2.63,0.00,19.28,24.90,28.83,14.84,48.79,1020.35,2042.01,2664.33,2584.28,2798.45,599.85,605.83,51.82,0000 0000 0000 0000 000000
2015-10-23 01:18:21,0.01,2.63,0.00,19.29,24.89,28.78,14.95,48.83,1020.27,2042.01,2664.04,2584.09,2798.18,600.32,606.06,51.87,0000 0000 0000 0000 000000
2015-10-23 01:23:23,0.01,2.63,0.00,19.29,24.88,28.76,14.87,48.88,1020.45,2042.02,2664.01,2584.00,2798.03,600.11,605.99,51.92,0000 0000 0000 0000 000000
2015-10-23 01:28:24,-0.00,2.63,0.00,19.29,24.88,28.75,14.80,48.67,1020.48,2042.01,2663.99,2584.00,2798.00,599.63,605.71,51.97,0000 0000 0000 0000 000000
2015-10-23 01:33:25,0.00,2.63,0.00,19.30,24.87,28.73,14.91,48.80,1020.51,2042.02,2663.91,2584.00,2798.00,599.92,605.82,52.03,0000 0000 0000 0000 000000
2015-10-23 01:38:26,0.02,2.63,0.00,19.32,24.87,28.80,14.89,48.75,1020.52,2042.03,2663.17,2583.99,2797.98,599.85,605.66,52.08,0000 0000 0000 0000 000000
2015-10-23 01:43:27,0.01,2.63,0.00,19.33,24.87,28.74,14.90,48.67,1020.51,2042.06,2663.02,2583.94,2797.98,600.16,605.97,52.13,0000 0000 0000 0000 000000
2015-10-23 01:48:29,0.01,2.63,0.00,19.35,24.87,28.74,14.87,48.81,1020.48,2042.05,2663.01,2583.79,2797.85,600.12,605.87,52.18,0000 0000 0000 0000 000000
2015-10-23 01:53:30,0.03,2.63,0.00,19.37,24.88,28.77,14.91,48.65,1020.52,2042.02,2663.01,2583.31,2797.11,600.35,606.18,52.23,0000 0000 0000 0000 000000
2015-10-23 01:58:31,0.01,2.63,0.00,19.39,24.89,28.71,14.83,48.73,1020.52,2042.02,2663.00,2583.07,2797.01,599.61,605.31,52.28,0000 0000 0000 0000 000000
2015-10-23 02:03:32,0.00,2.63,0.00,19.41,24.90,28.75,14.88,48.73,1020.51,2042.01,2662.92,2583.01,2797.00,600.14,605.76,52.33,0000 0000 0000 0000 000000
2015-10-23 02:08:34,0.02,2.63,0.00,19.43,24.90,28.66,14.81,48.76,1020.52,2042.01,2662.18,2583.00,2797.00,599.95,605.57,52.38,0000 0000 0000 0000 000000
2015-10-23 02:13:35,0.00,2.63,0.00,19.45,24.90,28.63,14.86,48.78,1020.51,2042.02,2662.00,2582.98,2796.93,599.86,605.43,52.43,0000 0000 0000 0000 000000
2015-10-23 02:18:36,0.01,2.63,0.00,19.47,24.90,28.67,14.90,48.88,1020.52,2042.00,2661.99,2582.88,2796.58,599.80,605.33,52.48,0000 0000 0000 0000 000000
2015-10-23 02:23:38,0.03,2.63,0.00,19.49,24.92,28.59,14.82,48.77,1020.52,2042.01,2661.83,2582.34,2796.07,599.83,605.30,52.53,0000 0000 0000 0000 000000
2015-10-23 02:28:39,0.00,2.64,0.00,19.51,24.92,28.66,14.90,48.92,1020.52,2042.00,2661.50,2582.04,2796.00,600.11,605.42,52.58,0000 0000 0000 0000 000000
2015-10-23 02:33:40,0.01,2.64,0.00,19.54,24.92,28.60,14.88,48.88,1020.52,2042.00,2661.05,2582.00,2795.99,600.22,605.56,52.63,0000 0000 0000 0000 000000
2015-10-23 02:38:41,0.00,2.64,0.00,19.55,24.92,28.67,14.85,48.86,1020.51,2042.00,2661.00,2581.99,2795.96,600.09,605.42,52.68,0000 0000 0000 0000 000000
2015-10-23 02:43:43,0.01,2.64,0.00,19.57,24.93,28.65,14.84,48.83,1020.45,2042.00,2660.97,2581.98,2795.56,599.76,605.00,52.73,0000 0000 0000 0000 000000
2015-10-23 02:48:44,0.04,2.64,0.00,19.59,24.94,28.63,14.89,48.86,1020.46,2042.00,2660.51,2581.62,2795.08,600.12,605.42,52.78,0000 0000 0000 0000 000000
2015-10-23 02:53:45,0.02,2.64,0.00,19.61,24.95,28.60,14.85,48.79,1020.52,2042.00,2660.02,2581.12,2795.00,599.81,604.94,52.83,0000 0000 0000 0000 000000
2015-10-23 02:58:47,0.00,2.64,0.00,19.63,24.95,28.62,14.88,48.98,1020.52,2042.00,2660.00,2581.01,2795.00,600.00,605.22,52.88,0000 0000 0000 0000 000000
2015-10-23 03:03:48,0.00,2.64,0.00,19.64,24.95,28.63,14.90,48.83,1020.52,2042.00,2659.93,2581.00,2794.98,600.17,605.39,52.94,0000 0000 0000 0000 000000
2015-10-23 03:08:49,0.01,2.64,0.00,19.67,24.97,28.64,14.80,48.77,1020.52,2042.00,2659.58,2581.00,2794.93,599.99,605.01,52.99,0000 0000 0000 0000 000000
2015-10-23 03:13:50,0.02,2.64,0.00,19.69,24.97,28.63,14.83,48.76,1020.52,2042.00,2659.09,2580.96,2794.56,600.07,605.11,53.04,0000 0000 0000 0000 000000
2015-10-23 03:18:51,0.03,2.64,0.00,19.71,24.99,28.63,14.83,48.84,1020.52,2041.99,2658.99,2580.28,2794.04,599.90,605.02,53.09,0000 0000 0000 0000 000000
2015-10-23 03:23:52,0.00,2.64,0.00,19.74,25.00,28.65,14.76,48.92,1020.52,2041.99,2658.97,2580.02,2794.00,599.59,604.66,53.14,0000 0000 0000 0000 000000
2015-10-23 03:28:54,0.01,2.64,0.00,19.76,25.02,28.64,14.83,48.98,1020.52,2041.97,2658.74,2580.00,2793.84,600.03,605.01,53.19,0000 0000 0000 0000 000000
2015-10-23 03:33:55,0.02,2.65,0.00,19.78,25.03,28.66,14.82,48.88,1020.50,2041.95,2658.16,2579.98,2793.26,599.88,604.79,53.24,0000 0000 0000 0000 000000
2015-10-23 03:38:56,0.01,2.65,0.00,19.80,25.05,28.65,14.83,48.95,1020.51,2041.92,2658.00,2579.75,2793.01,600.01,604.80,53.29,0000 0000 0000 0000 000000
2015-10-23 03:43:57,-0.00,2.65,0.00,19.83,25.06,28.63,14.80,48.94,1020.51,2041.79,2657.96,2579.22,2792.99,600.10,604.89,53.34,0000 0000 0000 0000 000000
2015-10-23 03:48:58,-0.00,2.65,0.00,19.86,25.07,28.70,14.89,49.04,1020.51,2041.58,2657.37,2579.01,2792.97,600.05,604.89,53.39,0000 0000 0000 0000 000000
2015-10-23 03:54:00,0.02,2.65,0.00,19.89,25.10,28.72,14.92,48.95,1020.51,2041.54,2657.01,2578.99,2792.58,600.26,604.87,53.44,0000 0000 0000 0000 000000
2015-10-23 03:59:01,-0.03,2.65,0.00,19.91,25.11,28.72,14.82,48.97,1020.52,2041.20,2656.99,2578.94,2792.03,599.73,604.36,53.49,0000 0000 0000 0000 000000
2015-10-23 04:04:02,0.02,2.65,0.00,19.93,25.13,28.74,14.92,49.07,1020.52,2041.09,2656.85,2578.38,2792.00,600.30,604.90,53.54,0000 0000 0000 0000 000000
2015-10-23 04:09:03,0.01,2.65,0.00,19.96,25.15,28.73,14.86,49.01,1020.52,2041.03,2656.19,2578.03,2791.96,600.11,604.72,53.59,0000 0000 0000 0000 000000
2015-10-23 04:14:05,0.01,2.65,0.00,19.97,25.17,28.74,14.82,48.98,1020.52,2041.00,2656.00,2578.00,2791.40,599.99,604.58,53.64,0000 0000 0000 0000 000000
2015-10-23 04:19:06,0.00,2.65,0.00,19.99,25.20,28.76,14.82,48.84,1020.51,2041.00,2655.99,2577.98,2791.04,599.71,604.17,53.69,0000 0000 0000 0000 000000
2015-10-23 04:24:08,0.02,2.65,0.00,20.01,25.22,28.79,14.81,48.83,1020.51,2041.00,2655.78,2577.66,2791.00,600.01,604.45,53.74,0000 0000 0000 0000 000000
2015-10-23 04:29:09,0.03,2.65,0.00,20.04,25.25,28.82,14.90,49.00,1020.52,2040.99,2655.09,2577.06,2790.92,600.16,604.62,53.79,0000 0000 0000 0000 000000
2015-10-23 04:34:11,0.01,2.65,0.00,20.06,25.27,28.86,14.79,48.83,1020.52,2040.99,2654.95,2577.00,2790.24,599.67,603.97,53.84,0000 0000 0000 0000 000000
2015-10-23 04:39:12,0.01,2.65,0.00,20.07,25.29,28.89,14.79,48.92,1020.52,2040.98,2654.54,2576.97,2790.01,599.67,604.00,53.90,0000 0000 0000 0000 000000
2015-10-23 04:44:13,0.03,2.65,0.00,20.09,25.31,28.90,14.84,48.83,1020.50,2040.95,2654.13,2576.63,2789.99,600.15,604.40,53.95,0000 0000 0000 0000 000000
2015-10-23 04:49:14,0.01,2.66,0.00,20.09,25.34,28.90,14.88,48.87,1020.49,2040.89,2654.01,2576.10,2789.76,600.35,604.56,54.00,0000 0000 0000 0000 000000
2015-10-23 04:54:16,-0.03,2.66,0.00,20.11,25.36,28.92,14.81,48.89,1020.50,2040.48,2653.74,2575.99,2789.10,600.07,604.33,54.05,0000 0000 0000 0000 000000
2015-10-23 04:59:17,-0.00,2.65,0.00,20.13,25.38,28.94,14.80,48.85,1020.48,2040.14,2653.12,2575.90,2789.00,600.01,604.17,54.10,0000 0000 0000 0000 000000
2015-10-23 05:04:18,0.02,2.65,0.00,20.14,25.40,28.95,14.77,48.84,1020.52,2040.04,2653.00,2575.39,2788.91,599.71,603.98,54.15,0000 0000 0000 0000 000000
2015-10-23 05:09:20,0.01,2.66,0.00,20.16,25.42,28.98,14.81,48.86,1020.52,2040.02,2652.98,2575.03,2788.32,600.02,604.12,54.20,0000 0000 0000 0000 000000
2015-10-23 05:14:21,0.01,2.66,0.00,20.17,25.43,28.96,14.83,48.85,1020.52,2040.01,2652.48,2575.00,2788.03,599.88,603.96,54.25,0000 0000 0000 0000 000000
2015-10-23 05:19:22,0.00,2.66,0.00,20.17,25.45,29.01,14.79,48.81,1020.52,2040.00,2652.02,2574.98,2788.00,599.96,603.94,54.30,0000 0000 0000 0000 000000
2015-10-23 05:24:23,0.02,2.66,0.00,20.18,25.47,29.04,14.79,48.81,1020.52,2040.00,2652.00,2574.49,2787.90,599.90,604.06,54.35,0000 0000 0000 0000 000000
2015-10-23 05:29:24,0.02,2.66,0.00,20.19,25.48,29.04,14.81,48.88,1020.52,2040.00,2651.94,2574.05,2787.34,600.03,604.09,54.40,0000 0000 0000 0000 000000
2015-10-23 05:34:26,0.01,2.66,0.00,20.19,25.50,29.07,14.85,48.81,1020.52,2040.00,2651.55,2574.01,2787.02,600.06,604.11,54.45,0000 0000 0000 0000 000000
2015-10-23 05:39:27,0.00,2.66,0.00,20.20,25.51,29.08,14.84,48.83,1020.52,2039.99,2651.06,2574.00,2787.00,600.36,604.28,54.50,0000 0000 0000 0000 000000
2015-10-23 05:44:29,0.00,2.66,0.00,20.21,25.52,29.09,14.75,48.76,1020.52,2039.98,2651.00,2573.98,2786.96,599.89,603.92,54.55,0000 0000 0000 0000 000000
2015-10-23 05:49:30,0.03,2.66,0.00,20.22,25.53,29.11,14.80,48.79,1020.52,2039.97,2650.98,2573.60,2786.38,599.85,603.90,54.60,0000 0000 0000 0000 000000
2015-10-23 05:54:31,0.01,2.66,0.00,20.22,25.55,29.15,14.84,48.83,1020.52,2039.94,2650.87,2573.10,2786.02,600.04,603.99,54.65,0000 0000 0000 0000 000000
2015-10-23 05:59:32,-0.01,2.66,0.00,20.22,25.55,29.19,14.81,48.83,1020.53,2039.78,2650.19,2573.01,2786.00,599.89,603.93,54.70,0000 0000 0000 0000 000000
2015-10-23 06:04:34,-0.01,2.66,0.00,20.22,25.55,29.21,14.80,48.79,1020.52,2039.67,2650.00,2573.00,2785.99,599.92,603.89,54.75,0000 0000 0000 0000 000000
2015-10-23 06:09:35,-0.01,2.66,0.00,20.22,25.57,29.19,14.81,48.73,1020.53,2039.51,2649.99,2572.99,2785.86,600.08,604.10,54.81,0000 0000 0000 0000 000000
2015-10-23 06:14:36,0.02,2.66,0.00,20.22,25.57,29.22,14.77,48.83,1020.52,2039.33,2649.56,2572.89,2785.48,599.74,603.73,54.86,0000 0000 0000 0000 000000
2015-10-23 06:19:38,0.01,2.66,0.00,20.24,25.57,29.22,14.85,48.94,1020.54,2039.34,2649.12,2572.49,2785.10,600.21,604.28,54.91,0000 0000 0000 0000 000000
2015-10-23 06:24:39,0.00,2.66,0.00,20.23,25.57,29.23,14.93,48.92,1020.55,2039.19,2649.01,2572.07,2785.01,600.40,604.24,54.96,0000 0000 0000 0000 000000
2015-10-23 06:29:40,-0.00,2.66,0.00,20.24,25.57,29.22,14.93,48.83,1020.56,2039.16,2648.96,2572.00,2785.00,600.30,604.25,55.01,0000 0000 0000 0000 000000
2015-10-23 06:34:42,0.01,2.67,0.00,20.24,25.59,29.24,14.75,48.77,1020.55,2039.27,2648.88,2572.00,2784.99,600.09,604.05,55.06,0000 0000 0000 0000 000000
2015-10-23 06:39:43,0.01,2.67,0.00,20.24,25.60,29.26,14.84,48.69,1020.61,2039.15,2648.26,2571.99,2784.96,600.11,604.10,55.11,0000 0000 0000 0000 000000
2015-10-23 06:44:44,0.01,2.67,0.00,20.24,25.60,29.26,14.81,48.73,1020.66,2039.15,2648.02,2571.97,2784.83,599.82,603.84,55.16,0000 0000 0000 0000 000000
2015-10-23 06:49:45,0.01,2.67,0.00,20.24,25.60,29.32,14.76,48.83,1020.77,2039.14,2648.00,2571.79,2784.36,599.90,603.85,55.21,0000 0000 0000 0000 000000
2015-10-23 06:54:46,0.02,2.67,0.00,20.23,25.60,29.28,14.80,48.77,1020.92,2039.10,2647.98,2571.23,2784.03,599.58,603.77,55.26,0000 0000 0000 0000 000000
2015-10-23 06:59:47,0.00,2.67,0.00,20.22,25.60,29.33,14.80,48.68,1020.95,2039.06,2647.92,2571.05,2784.00,599.89,603.93,55.31,0000 0000 0000 0000 000000
2015-10-23 07:04:49,0.02,2.67,0.00,20.22,25.61,29.37,14.80,48.74,1020.98,2039.07,2647.32,2571.00,2784.00,599.79,604.02,55.36,0000 0000 0000 0000 000000
2015-10-23 07:09:50,-0.00,2.67,0.00,20.21,25.62,29.31,14.79,48.83,1020.98,2039.04,2647.01,2571.00,2783.99,599.76,604.14,55.41,0000 0000 0000 0000 000000
2015-10-23 07:14:52,-0.00,2.67,0.00,20.20,25.62,29.36,14.81,48.88,1020.97,2039.02,2647.00,2571.00,2783.98,600.01,604.18,55.46,0000 0000 0000 0000 000000
2015-10-23 07:19:53,0.01,2.67,0.00,20.19,25.62,29.36,14.81,48.88,1020.97,2039.04,2646.99,2570.98,2783.75,599.88,604.22,55.51,0000 0000 0000 0000 000000
2015-10-23 07:24:54,0.01,2.67,0.00,20.19,25.62,29.32,14.86,48.98,1020.99,2039.05,2646.94,2570.95,2783.35,600.31,604.64,55.56,0000 0000 0000 0000 000000
2015-10-23 07:29:55,0.03,2.67,0.00,20.19,25.62,29.32,14.76,48.90,1021.00,2039.03,2646.57,2570.54,2783.05,600.19,604.40,55.61,0000 0000 0000 0000 000000
2015-10-23 07:34:57,0.00,2.67,0.00,20.19,25.62,29.37,14.89,48.83,1021.01,2039.01,2646.54,2570.32,2783.01,600.08,604.54,55.67,0000 0000 0000 0000 000000
2015-10-23 07:39:58,0.02,2.67,0.00,20.18,25.62,29.31,14.86,48.82,1021.01,2039.00,2646.12,2570.05,2782.99,600.20,604.68,55.72,0000 0000 0000 0000 000000
2015-10-23 07:44:59,0.00,2.67,0.00,20.17,25.62,29.35,14.83,48.88,1021.01,2039.01,2646.00,2570.01,2782.98,599.91,604.27,55.77,0000 0000 0000 0000 000000
2015-10-23 07:50:00,0.00,2.67,0.00,20.17,25.62,29.35,14.82,48.87,1021.01,2039.01,2646.00,2570.00,2782.97,599.96,604.34,55.82,0000 0000 0000 0000 000000
2015-10-23 07:55:02,0.01,2.67,0.00,20.17,25.62,29.44,14.90,49.01,1021.01,2039.01,2646.00,2570.00,2782.65,600.04,604.43,55.87,0000 0000 0000 0000 000000
2015-10-23 08:00:03,0.01,2.67,0.00,20.15,25.62,29.42,14.95,49.05,1021.02,2039.00,2645.89,2570.00,2782.18,600.26,604.70,55.92,0000 0000 0000 0000 000000
2015-10-23 08:05:04,0.02,2.68,0.00,20.13,25.62,29.41,14.82,48.87,1021.03,2039.01,2645.30,2569.97,2782.03,599.78,604.18,55.97,0000 0000 0000 0000 000000
2015-10-23 08:10:06,0.00,2.68,0.00,20.12,25.62,29.48,14.87,48.93,1021.02,2039.01,2645.07,2569.97,2782.01,600.04,604.34,56.02,0000 0000 0000 0000 000000
2015-10-23 08:15:07,0.01,2.68,0.00,20.12,25.62,29.47,14.91,49.02,1021.03,2039.00,2645.02,2569.81,2782.00,600.26,604.82,56.07,0000 0000 0000 0000 000000
2015-10-23 08:20:08,0.01,2.68,0.00,20.10,25.61,29.48,14.84,48.84,1021.03,2039.01,2645.00,2569.49,2782.00,599.55,604.10,56.12,0000 0000 0000 0000 000000
2015-10-23 08:25:09,0.01,2.68,0.00,20.09,25.60,29.51,14.85,48.97,1021.04,2039.00,2645.00,2569.21,2781.99,600.05,604.55,56.17,0000 0000 0000 0000 000000
2015-10-23 08:30:10,0.01,2.68,0.00,20.08,25.60,29.46,14.93,48.98,1021.08,2039.00,2644.98,2569.08,2781.99,600.34,604.99,56.22,0000 0000 0000 0000 000000
2015-10-23 08:35:11,0.00,2.68,0.00,20.07,25.60,29.41,14.92,48.92,1021.13,2039.02,2644.98,2569.02,2781.98,600.19,604.88,56.27,0000 0000 0000 0000 000000
2015-10-23 08:40:13,0.00,2.68,0.00,20.07,25.60,29.47,14.81,48.92,1021.14,2039.01,2644.98,2569.02,2781.76,600.16,604.81,56.32,0000 0000 0000 0000 000000
2015-10-23 08:45:14,0.01,2.68,0.00,20.05,25.58,29.48,14.86,48.96,1021.15,2039.01,2644.72,2569.00,2781.37,600.00,604.79,56.37,0000 0000 0000 0000 000000
2015-10-23 08:50:15,0.01,2.68,0.00,20.04,25.57,29.51,14.93,48.95,1021.15,2039.00,2644.50,2569.00,2781.15,599.96,604.76,56.42,0000 0000 0000 0000 000000
2015-10-23 08:55:17,0.01,2.68,0.00,20.02,25.57,29.53,14.83,48.84,1021.18,2039.01,2644.05,2569.00,2781.10,600.09,604.78,56.47,0000 0000 0000 0000 000000
2015-10-23 09:00:18,0.00,2.68,0.00,20.02,25.57,29.52,14.82,48.95,1021.26,2039.01,2644.00,2569.00,2781.06,599.74,604.52,56.52,0000 0000 0000 0000 000000
2015-10-23 09:05:19,0.00,2.68,0.00,19.99,25.55,29.39,14.90,48.87,1021.16,2039.01,2644.00,2568.99,2781.06,600.16,604.97,56.58,0000 0000 0000 0000 000000
2015-10-23 09:10:21,0.02,2.68,0.00,19.99,25.55,29.45,14.79,49.04,1021.15,2039.13,2643.98,2568.99,2781.05,599.88,604.72,56.63,0000 0000 0000 0000 000000
2015-10-23 09:15:22,0.01,2.68,0.00,19.97,25.55,29.51,14.88,48.73,1021.07,2039.21,2643.98,2568.97,2781.03,600.19,604.95,56.68,0000 0000 0000 0000 000000
2015-10-23 09:20:24,-0.00,2.68,0.00,19.95,25.54,29.48,14.88,48.76,1021.15,2039.22,2643.96,2568.96,2781.00,600.19,605.14,56.73,0000 0000 0000 0000 000000
2015-10-23 09:25:25,-0.01,2.68,0.00,19.94,25.52,29.52,14.88,48.67,1021.30,2039.21,2643.96,2568.96,2781.00,600.00,605.12,56.78,0000 0000 0000 0000 000000
2015-10-23 09:30:26,0.05,2.68,0.00,19.94,25.52,29.43,14.82,48.70,1021.23,2039.53,2643.42,2568.92,2781.00,599.65,604.56,56.83,0000 0000 0000 0000 000000
2015-10-23 09:35:27,0.03,2.68,0.00,19.94,25.52,29.48,14.77,48.71,1021.17,2039.83,2643.38,2568.92,2781.00,599.83,604.70,56.88,0000 0000 0000 0000 000000
2015-10-23 09:40:29,-0.00,2.68,0.00,19.92,25.51,29.45,14.87,48.80,1021.20,2039.78,2643.26,2568.82,2780.99,599.91,604.88,56.93,0000 0000 0000 0000 000000
2015-10-23 09:45:30,0.03,2.69,0.00,19.90,25.50,29.41,14.79,48.70,1021.11,2039.85,2643.06,2568.54,2780.99,599.60,604.67,56.98,0000 0000 0000 0000 000000
2015-10-23 09:50:31,0.01,2.69,0.00,19.89,25.50,29.44,14.86,48.76,1021.29,2039.96,2643.01,2568.52,2780.99,599.85,604.98,57.03,0000 0000 0000 0000 000000
2015-10-23 09:55:32,0.01,2.69,0.00,19.87,25.50,29.45,14.87,48.78,1021.34,2039.96,2643.01,2568.30,2780.97,599.90,605.09,57.08,0000 0000 0000 0000 000000
2015-10-23 10:00:34,0.00,2.69,0.00,19.87,25.47,29.39,14.83,48.80,1021.24,2039.97,2643.01,2568.20,2780.93,599.53,604.77,57.13,0000 0000 0000 0000 000000
2015-10-23 10:05:35,0.00,2.69,0.00,19.87,25.47,29.44,14.88,48.81,1021.43,2039.96,2643.00,2568.08,2780.88,599.86,604.98,57.18,0000 0000 0000 0000 000000
2015-10-23 10:10:36,0.00,2.69,0.00,19.86,25.47,29.43,14.90,48.79,1021.37,2039.98,2643.00,2568.06,2780.85,599.89,605.12,57.23,0000 0000 0000 0000 000000
2015-10-23 10:15:38,0.00,2.69,0.00,19.84,25.45,29.39,14.96,48.88,1021.45,2039.99,2642.98,2568.06,2780.77,600.59,605.81,57.28,0000 0000 0000 0000 000000
2015-10-23 10:20:39,0.01,2.69,0.00,19.82,25.45,29.37,14.84,48.69,1021.48,2039.98,2642.94,2568.00,2780.22,599.76,605.12,57.33,0000 0000 0000 0000 000000
2015-10-23 10:25:40,0.01,2.69,0.00,19.82,25.44,29.36,14.88,48.77,1021.49,2039.98,2642.49,2568.00,2780.10,599.89,605.19,57.38,0000 0000 0000 0000 000000
2015-10-23 10:30:41,0.01,2.69,0.00,19.81,25.42,29.40,14.87,48.63,1021.50,2039.98,2642.12,2568.00,2780.03,599.99,605.41,57.43,0000 0000 0000 0000 000000
2015-10-23 10:35:42,0.00,2.69,0.00,19.79,25.42,29.39,14.87,48.71,1021.50,2039.99,2642.02,2568.00,2780.04,599.94,605.39,57.48,0000 0000 0000 0000 000000
2015-10-23 10:40:44,0.00,2.69,0.00,19.79,25.41,29.36,14.87,48.49,1021.50,2039.99,2642.00,2568.00,2780.01,599.97,605.38,57.54,0000 0000 0000 0000 000000
2015-10-23 10:45:45,0.00,2.69,0.00,19.79,25.40,29.38,14.93,48.58,1021.50,2039.99,2642.01,2568.00,2780.03,600.03,605.53,57.59,0000 0000 0000 0000 000000
2015-10-23 10:50:46,0.00,2.69,0.00,19.78,25.40,29.36,14.92,48.60,1021.50,2039.99,2642.00,2567.98,2780.01,600.07,605.58,57.64,0000 0000 0000 0000 000000
2015-10-23 10:55:48,0.00,2.69,0.00,19.77,25.40,29.37,14.90,48.67,1021.50,2039.99,2642.00,2567.98,2780.00,600.11,605.60,57.69,0000 0000 0000 0000 000000
2015-10-23 11:00:49,0.00,2.69,0.00,19.74,25.38,29.37,14.88,48.70,1021.50,2039.99,2641.93,2567.98,2780.00,600.08,605.46,57.74,0000 0000 0000 0000 000000
2015-10-23 11:05:50,0.00,2.69,0.00,19.73,25.37,29.33,14.90,48.63,1021.50,2039.99,2641.85,2567.96,2780.00,599.80,605.40,57.79,0000 0000 0000 0000 000000
2015-10-23 11:10:52,0.00,2.69,0.00,19.72,25.37,29.32,14.90,48.62,1021.49,2039.99,2641.85,2567.92,2779.99,600.08,605.70,57.84,0000 0000 0000 0000 000000
2015-10-23 11:15:53,0.01,2.69,0.00,19.72,25.36,29.31,14.89,48.57,1021.49,2040.00,2641.29,2567.79,2779.99,600.01,605.77,57.89,0000 0000 0000 0000 000000
2015-10-23 11:20:55,0.01,2.69,0.00,19.70,25.35,29.29,14.84,48.57,1021.50,2040.01,2641.03,2567.48,2779.97,600.19,605.71,57.94,0000 0000 0000 0000 000000
2015-10-23 11:25:56,0.01,2.69,0.00,19.69,25.35,29.33,14.95,48.65,1021.50,2040.01,2641.02,2567.26,2779.90,600.21,605.88,57.99,0000 0000 0000 0000 000000
2015-10-23 11:30:57,0.00,2.69,0.00,19.67,25.34,29.29,14.80,48.53,1021.50,2040.02,2641.00,2567.17,2779.93,599.64,605.52,58.04,0000 0000 0000 0000 000000
2015-10-23 11:35:58,0.01,2.69,0.00,19.67,25.32,29.25,14.88,48.63,1021.49,2040.06,2641.00,2567.12,2779.87,600.12,605.88,58.09,0000 0000 0000 0000 000000
2015-10-23 11:41:00,0.00,2.69,0.00,19.65,25.32,29.27,14.94,48.59,1021.49,2040.06,2641.00,2567.04,2779.57,600.00,605.78,58.14,0000 0000 0000 0000 000000
2015-10-23 11:46:01,0.04,2.69,0.00,19.64,25.32,29.28,14.87,48.58,1021.49,2040.29,2640.96,2567.01,2779.72,599.79,605.55,58.19,0000 0000 0000 0000 000000
2015-10-23 11:51:02,0.04,2.70,0.00,19.63,25.30,29.25,14.92,48.63,1021.46,2040.58,2640.53,2567.01,2779.32,599.98,605.71,58.24,0000 0000 0000 0000 000000
2015-10-23 11:56:04,0.00,2.70,0.00,19.62,25.30,29.22,14.88,48.55,1021.49,2040.70,2640.41,2567.00,2779.08,599.97,605.98,58.29,0000 0000 0000 0000 000000
2015-10-23 12:01:05,0.01,2.70,0.00,19.62,25.30,29.23,14.92,48.54,1021.50,2040.61,2640.13,2567.00,2779.02,599.92,605.83,58.34,0000 0000 0000 0000 000000
2015-10-23 12:06:06,0.01,2.70,0.00,19.60,25.29,29.22,14.90,48.60,1021.50,2040.75,2640.01,2567.00,2779.00,599.88,605.77,58.39,0000 0000 0000 0000 000000
2015-10-23 12:11:07,0.00,2.70,0.00,19.59,25.27,29.20,14.93,48.66,1021.50,2040.87,2640.00,2566.98,2779.00,600.03,606.01,58.45,0000 0000 0000 0000 000000
2015-10-23 12:16:09,-0.01,2.70,0.00,19.58,25.27,29.19,14.84,48.60,1021.50,2040.77,2640.01,2566.98,2778.99,599.84,605.76,58.50,0000 0000 0000 0000 000000
2015-10-23 12:21:10,-0.03,2.70,0.00,19.57,25.27,29.17,15.06,48.69,1021.50,2040.46,2640.02,2566.97,2778.96,600.26,606.34,58.55,0000 0000 0000 0000 000000
2015-10-23 12:26:11,0.00,2.70,0.00,19.57,25.25,29.17,14.83,48.62,1021.50,2040.51,2640.00,2566.91,2778.88,599.84,605.69,58.60,0000 0000 0000 0000 000000
2015-10-23 12:31:13,0.04,2.70,0.00,19.57,25.25,29.16,14.88,48.54,1021.50,2040.85,2639.94,2566.81,2778.94,600.29,605.96,58.65,0000 0000 0000 0000 000000
2015-10-23 12:36:14,0.00,2.70,0.00,19.56,25.23,29.16,15.00,48.73,1021.50,2040.89,2639.93,2566.72,2778.81,599.86,605.74,58.70,0000 0000 0000 0000 000000
2015-10-23 12:41:15,0.05,2.70,0.00,19.54,25.22,29.15,14.91,48.66,1021.50,2040.93,2639.46,2566.29,2778.56,599.73,605.68,58.75,0000 0000 0000 0000 000000
2015-10-23 12:46:17,-0.01,2.70,0.00,19.54,25.20,29.17,14.91,48.76,1021.50,2040.98,2639.58,2566.27,2778.28,599.71,605.75,58.80,0000 0000 0000 0000 000000
2015-10-23 12:51:18,0.02,2.70,0.00,19.54,25.20,29.11,14.90,48.68,1021.50,2040.97,2639.17,2566.15,2778.10,599.72,605.78,58.85,0000 0000 0000 0000 000000
2015-10-23 12:56:19,-0.00,2.70,0.00,19.52,25.18,29.11,14.91,48.60,1021.50,2040.98,2639.12,2566.09,2778.04,600.04,606.11,58.90,0000 0000 0000 0000 000000